Temp
57 55 55 56 56 56 56 55 57 55 53 53 51 51 48 46 45 45 44 43 42 42
56 56 56 57 58 57 57 57 56 54 50 52 50 49 48 46 45 44 42 41 41 40
56 58 57 56 56 56 55 54 53 50 50 50 49 48 46 43 43 43 41 42 41 39
57 57 56 55 54 52 52 50 52 50 49 48 46 45 44 43 43 43 41 40 40 40
56 55 51 51 54 51 49 49 50 48 47 46 45 44 43 44 43 42 41 41 39 40
52 50 51 48 48 48 47 46 46 46 46 45 45 44 43 43 43 42 41 40 39 39
46 45 45 45 46 45 45 44 44 44 45 45 44 44 43 43 41 40 40 40 40 40
44 44 44 44 43 43 44 43 43 43 43 43 43 46 42 42 40 39 39 40 40 40
45 44 43 42 42 42 41 40 40 40 40 40 46 52 54 51 41 41 40 38 39 40
44 43 42 42 41 40 38 38 38 38 39 39 39 51 53 53 43 40 38 37 37 38
42 41 41 40 39 37 37 37 37 37 37 36 39 49 51 52 38 37 37 37 37 36
41 40 40 39 37 37 36 36 35 36 35 34 35 47 48 46 38 37 36 37 37 37
41 40 39 37 37 36 35 36 37 36 33 40 33 42 47 46 38 34 35 36 37 44
39 38 37 36 35 34 34 34 32 33 32 33 34 35 45 46 40 38 41 41 38 37
MSLP
1015.30 1015.59 1016.29 1016.86 1016.96 1017.72 1017.94 1018.51 1018.77 1019.17 1019.67 1020.16 1020.43 1020.92 1021.17 1021.72 1022.21 1022.64 1023.07 1023.34 1023.60 1023.88
1014.88 1015.84 1016.56 1016.55 1016.97 1017.81 1018.08 1018.61 1018.84 1019.14 1019.94 1020.37 1020.71 1021.08 1021.51 1022.04 1022.21 1022.81 1023.34 1023.51 1023.74 1024.04
1015.15 1015.88 1016.08 1016.78 1017.42 1018.05 1018.74 1018.85 1019.14 1019.42 1020.14 1020.61 1021.10 1021.43 1021.88 1022.18 1022.49 1022.90 1023.21 1023.45 1023.74 1023.93
1015.42 1015.86 1016.67 1017.54 1018.07 1018.60 1019.24 1019.21 1019.48 1019.95 1020.56 1020.94 1021.34 1021.70 1021.96 1022.23 1022.65 1022.98 1023.26 1023.47 1023.62 1023.81
1016.19 1016.94 1017.74 1018.31 1018.91 1019.25 1019.64 1019.71 1020.02 1020.24 1020.86 1021.19 1021.52 1021.76 1022.05 1022.36 1022.68 1022.90 1023.15 1023.32 1023.55 1023.69
1017.44 1017.98 1018.55 1019.05 1019.52 1019.96 1020.19 1020.25 1020.44 1020.77 1021.16 1021.46 1021.72 1021.91 1022.04 1022.20 1022.45 1022.66 1022.81 1022.98 1023.23 1023.27
1018.58 1019.00 1019.46 1019.83 1020.11 1020.41 1020.58 1020.73 1021.04 1021.29 1021.46 1021.63 1021.75 1021.83 1021.96 1022.14 1022.34 1022.53 1022.66 1022.69 1022.76 1022.74
1019.55 1019.83 1019.94 1020.26 1020.75 1021.06 1021.20 1021.48 1021.66 1021.76 1021.83 1021.84 1021.78 1021.65 1021.61 1021.82 1022.07 1022.27 1022.37 1022.39 1022.40 1022.37
1020.12 1020.36 1020.67 1021.26 1021.52 1021.66 1021.87 1021.98 1022.06 1022.13 1022.16 1022.15 1021.98 1021.61 1021.27 1021.40 1021.79 1021.93 1022.02 1022.07 1021.88 1021.67
1020.68 1021.08 1021.50 1021.68 1021.88 1022.15 1022.31 1022.34 1022.38 1022.35 1022.31 1022.21 1021.95 1021.50 1021.19 1021.18 1021.30 1021.41 1021.51 1021.67 1021.54 1021.43
1021.30 1021.70 1021.94 1022.10 1022.30 1022.44 1022.52 1022.57 1022.57 1022.52 1022.47 1022.38 1022.03 1021.57 1021.22 1021.16 1021.31 1021.31 1021.33 1021.38 1021.22 1021.12
1021.68 1022.02 1022.24 1022.49 1022.58 1022.62 1022.67 1022.69 1022.63 1022.54 1022.47 1022.36 1022.25 1021.61 1021.39 1021.30 1021.34 1021.26 1021.13 1020.93 1020.76 1020.61
1021.93 1022.16 1022.41 1022.55 1022.66 1022.71 1022.74 1022.75 1022.69 1022.59 1022.54 1022.27 1022.28 1021.95 1021.41 1021.19 1020.99 1020.94 1020.68 1020.41 1020.11 1019.92
1022.36 1022.55 1022.70 1022.79 1022.86 1022.88 1022.90 1022.92 1022.85 1022.79 1022.63 1022.50 1022.24 1021.80 1021.27 1020.78 1020.45 1020.25 1019.93 1019.65 1019.46 1019.26
Wind_Speed
13 7 4 7 4 5 6 4 5 5 6 6 7 6 6 5 4 5 4 5 3 2
8 6 6 6 4 3 4 3 5 7 7 6 6 6 6 4 5 5 3 4 3 2
6 5 5 5 6 6 5 6 8 8 7 6 6 6 6 4 4 5 2 3 3 1
8 9 8 7 7 7 6 7 7 7 6 6 6 6 6 5 5 5 3 2 1 1
11 10 9 8 8 7 7 6 6 7 6 6 6 5 6 6 5 5 3 3 4 5
10 9 9 8 7 7 6 6 5 5 5 4 4 5 4 4 4 4 5 5 5 5
8 8 7 7 7 6 6 6 5 4 3 2 2 3 3 4 4 4 5 6 6 6
7 6 7 7 7 6 7 5 5 4 3 3 2 3 4 4 5 5 6 6 6 6
7 7 7 6 6 6 5 5 4 4 3 2 2 5 7 5 4 5 6 6 6 6
6 7 6 5 6 5 4 3 3 2 2 3 4 8 11 13 3 3 3 4 4 5
6 6 4 4 4 3 1 0 1 3 2 2 4 10 12 13 1 2 5 6 6 6
5 5 3 3 2 0 1 2 2 2 3 2 4 8 11 10 4 5 7 6 6 6
3 3 2 1 1 1 1 2 2 2 2 2 3 8 13 13 5 6 5 6 7 14
4 4 3 2 2 2 3 2 3 4 3 5 5 7 16 16 6 5 5 6 4 5
Wind_Direction
152 172 181 179 152 168 178 194 148 123 120 125 118 114 110 110 113 106 107 113 107 118
141 159 186 182 146 154 123 131 117 108 111 113 108 113 112 117 112 106 115 111 118 123
141 172 124 112 114 115 116 119 124 119 119 110 109 112 113 106 103 112 93 106 111 111
95 93 90 100 106 104 110 107 102 105 108 116 119 120 113 112 123 121 132 122 131 226
83 86 90 88 90 92 94 85 110 108 118 126 129 130 139 153 154 162 185 201 193 233
83 81 80 80 79 79 93 95 98 112 121 129 151 158 166 170 187 205 216 222 216 232
74 82 82 84 83 85 82 83 75 76 96 119 148 174 201 213 229 240 239 234 216 223
86 87 82 73 69 69 65 63 60 59 41 19 321 262 247 239 232 236 248 247 242 240
85 80 77 84 83 74 68 62 63 56 64 38 320 309 300 285 226 239 235 248 253 240
91 85 82 86 84 79 68 55 49 28 1 321 306 308 303 301 297 255 247 252 261 273
97 100 96 91 89 89 80 59 303 305 331 323 304 316 308 303 129 256 260 254 251 251
111 117 116 111 117 136 350 328 316 310 316 320 314 335 326 325 302 280 271 267 256 260
105 117 119 116 353 343 346 297 328 332 332 273 315 316 319 313 279 272 267 265 257 275
48 72 57 46 12 354 354 10 4 331 317 309 299 296 310 310 293 263 273 283 263 254